TimeEST,TemperatureF,Dew PointF,Humidity,Sea Level PressureIn,VisibilityMPH,Wind Direction,Wind SpeedMPH,Gust SpeedMPH,PrecipitationIn,Events,Conditions,WindDirDegrees,DateUTC
12:53 AM,30.9,19.9,64,30.12,10.0,West,3.5,-,N/A,,Overcast,260,2013-02-25 05:53:00
1:53 AM,30.9,19.0,61,30.12,10.0,Calm,Calm,-,N/A,,Overcast,0,2013-02-25 06:53:00
2:53 AM,30.0,19.9,66,30.13,10.0,WNW,3.5,-,N/A,,Overcast,300,2013-02-25 07:53:00
3:53 AM,30.0,19.9,66,30.12,10.0,WNW,3.5,-,N/A,,Partly Cloudy,300,2013-02-25 08:53:00
4:53 AM,26.1,21.0,81,30.14,10.0,Calm,Calm,-,N/A,,Clear,0,2013-02-25 09:53:00
5:53 AM,24.1,21.0,88,30.16,10.0,Calm,Calm,-,N/A,,Clear,0,2013-02-25 10:53:00
6:53 AM,24.1,19.9,84,30.19,9.0,Calm,Calm,-,N/A,,Partly Cloudy,0,2013-02-25 11:53:00
7:53 AM,26.1,23.0,88,30.19,7.0,Calm,Calm,-,N/A,,Overcast,0,2013-02-25 12:53:00
8:53 AM,32.0,21.9,66,30.21,10.0,Variable,4.6,-,N/A,,Clear,0,2013-02-25 13:53:00
9:53 AM,36.0,23.0,59,30.21,10.0,Variable,5.8,-,N/A,,Clear,0,2013-02-25 14:53:00
10:53 AM,39.0,24.1,55,30.22,10.0,North,9.2,-,N/A,,Clear,360,2013-02-25 15:53:00
11:53 AM,41.0,25.0,53,30.21,10.0,NW,5.8,-,N/A,,Clear,320,2013-02-25 16:53:00
12:53 PM,42.1,24.1,49,30.19,10.0,NE,9.2,-,N/A,,Partly Cloudy,40,2013-02-25 17:53:00
1:53 PM,44.1,24.1,45,30.19,10.0,NE,4.6,-,N/A,,Scattered Clouds,40,2013-02-25 18:53:00
2:53 PM,43.0,24.1,47,30.18,10.0,North,5.8,-,N/A,,Clear,350,2013-02-25 19:53:00
3:53 PM,44.1,23.0,43,30.17,10.0,NNE,5.8,-,N/A,,Clear,30,2013-02-25 20:53:00
4:53 PM,43.0,23.0,45,30.18,10.0,Variable,3.5,-,N/A,,Clear,0,2013-02-25 21:53:00
5:53 PM,37.9,24.1,57,30.19,10.0,Calm,Calm,-,N/A,,Clear,0,2013-02-25 22:53:00
6:53 PM,32.0,26.1,79,30.21,10.0,Calm,Calm,-,N/A,,Clear,0,2013-02-25 23:53:00
7:53 PM,30.0,25.0,82,30.22,10.0,Calm,Calm,-,N/A,,Clear,0,2013-02-26 00:53:00
8:53 PM,28.9,25.0,85,30.23,8.0,Calm,Calm,-,N/A,,Clear,0,2013-02-26 01:53:00
9:53 PM,28.0,25.0,88,30.22,10.0,Calm,Calm,-,N/A,,Clear,0,2013-02-26 02:53:00
10:53 PM,27.0,24.1,89,30.23,9.0,Calm,Calm,-,N/A,,Clear,0,2013-02-26 03:53:00
11:53 PM,26.1,23.0,88,30.21,9.0,Calm,Calm,-,N/A,,Clear,0,2013-02-26 04:53:00